STARLINK-5009 (53928 NORAD) Tracking and Keplerian Element Data

This shows tracking and keplerian element data for the satellite.

Feedback or suggestion? Click here.




ElementValue
Catalog53928
NameSTARLINK-5009
Epoch Orbit130
Epoch Day324.91667824
Epoch Year2022
RAAN331.1277
Inclination53.2144
Eccentricity0.0003951
Argument of Perigee3.8763
Mean Anonmoly19.2717
Mean Motion15.73146422
Decay Rate0.0007214
L11 53928U 22119AU 22324.91667824 .00072140 00000+0 51503-3 0 9998
L22 53928 53.2144 331.1277 0003951 3.8763 19.2717 15.73146422 1303



Live tracking and technical data element details for STARLINK-5009 (NORAD 53928). STARLINK-5009 can be tracked NOW for your location showing map with azimuth and elevation plus other details from your city location.







IsCatalogInMostPopularTable: catalog: 53928, numindb: 1
Update: records affected: 1



GetName: 53928 STARLINK-5009

Hit Count: updated at: Fri, 09 Dec 2022 18:36:57 GMT